Home > Weather > Stockport > Past weeks

Flag for United Kingdom Weather for the Past 2 Weeks in Stockport, England, United Kingdom

Now
36 °F

Scattered showers. Passing clouds.


Feels Like: 29 °F
Forecast: N/A
Wind: 9 mph from North

Location: Manchester Airport

Current Time: Feb 14, 2016 at 9:10:42 PM

Latest Report: Feb 14, 2016 at 8:20 PM


Visibility: N/A

Pressure: 29.86 "Hg

Humidity: 75%

Dew point: 28 °F

Location of StockportLocation

Historic Weather in Stockport — Graph

°F

Stockport Temperature Yesterday

Maximum temperature yesterday: 43 °F (at 2:50 PM)
Minimum temperature yesterday: 34 °F (at 9:50 PM)
Average temperature yesterday: 38 °F

High & Low Weather Summary for the Past Weeks

 TemperatureHumidityPressure
High55 °F (Feb 1, 10:50 AM)100% (Jan 31, 11:20 AM)30.27 "Hg (Jan 31, 11:20 AM)
Low34 °F (Feb 3, 5:50 AM)49% (Feb 14, 2:20 PM)28.71 "Hg (Feb 8, 7:20 AM)
Average42 °F82%29.51 "Hg
* Reported Jan 30 7:20 PM — Feb 14 7:50 PM, Stockport, Weather by CustomWeather, © 2016

Note: Actual official high and low records may vary slightly from our data, if they occured in-between our weather recording intervals... More about our weather records

Advertising

Stockport Weather History for the Previous 24 Hours

 ConditionsComfort  
Time TempWeatherWind HumidityBarometerVisibility
7:50 PM
Sun, Feb 14
36 °FPassing clouds.7 mph75%29.83 "HgN/A
7:20 PM37 °FPassing clouds.9 mph70%29.83 "HgN/A
6:50 PM37 °FPassing clouds.13 mph70%29.80 "HgN/A
6:20 PM37 °FScattered showers. Passing clouds.10 mph65%29.77 "HgN/A
5:50 PM37 °FPassing clouds.9 mph65%29.74 "HgN/A
5:20 PM37 °FPassing clouds.10 mph65%29.74 "HgN/A
4:50 PM39 °FPassing clouds.14 mph61%29.71 "HgN/A
4:20 PM41 °FScattered clouds.14 mph57%29.68 "HgN/A
3:50 PM39 °FPassing clouds.13 mph61%29.65 "HgN/A
3:20 PM41 °FPassing clouds.16 mph57%29.65 "HgN/A
2:50 PM41 °FScattered showers. Scattered clouds.14 mph57%29.62 "HgN/A
2:20 PM43 °FScattered clouds.12 mph49%29.62 "HgN/A
1:50 PM43 °FScattered clouds.13 mph53%29.59 "HgN/A
1:20 PM41 °FScattered clouds.13 mph53%29.59 "HgN/A
12:50 PM41 °FScattered clouds.14 mph53%29.56 "HgN/A
12:20 PM41 °FScattered clouds.14 mph57%29.56 "HgN/A
11:50 AM39 °FPassing clouds.13 mph61%29.53 "HgN/A
11:20 AM39 °FSunny.14 mph65%29.53 "Hg10 mi
10:50 AM39 °FPassing clouds.15 mph65%29.53 "HgN/A
10:20 AM39 °FSunny.14 mph70%29.50 "Hg10 mi
9:50 AM37 °FPassing clouds.13 mph75%29.47 "HgN/A
9:20 AM37 °FSunny.12 mph81%29.47 "Hg10 mi
8:50 AM36 °FBroken clouds.12 mph87%29.45 "HgN/A
8:20 AM36 °FPartly sunny.14 mph87%29.42 "HgN/A
7:20 AM36 °FPassing clouds.10 mph87%29.39 "HgN/A
6:50 AM36 °FPassing clouds.9 mph87%29.39 "HgN/A
6:20 AM36 °FChilly.9 mph87%29.36 "HgN/A
5:50 AM36 °FPassing clouds.13 mph87%29.36 "HgN/A
5:20 AM34 °FPassing clouds.5 mph87%29.33 "HgN/A
4:50 AM34 °FClear.7 mph87%29.33 "Hg10 mi
3:50 AM34 °FClear.12 mph87%29.30 "Hg10 mi
2:50 AM34 °FClear.14 mph87%29.30 "Hg10 mi
1:50 AM34 °FClear.9 mph87%29.27 "Hg10 mi
1:20 AM34 °FClear.8 mph87%29.27 "Hg10 mi
12:50 AM34 °FClear.9 mph87%29.27 "Hg10 mi
12:20 AM34 °FClear.8 mph87%29.27 "Hg10 mi
11:50 PM
Sat, Feb 13
34 °FClear.8 mph87%29.27 "Hg10 mi
11:20 PM34 °FClear.9 mph87%29.24 "Hg10 mi
10:50 PM34 °FClear.9 mph87%29.24 "Hg10 mi
10:20 PM34 °FClear.8 mph87%29.24 "Hg10 mi
9:50 PM34 °FClear.8 mph87%29.24 "Hg10 mi
9:20 PM36 °FPassing clouds.10 mph87%29.24 "HgN/A
Weather by CustomWeather, © 2016

See weather overviewHow to use our weather pages